Location: Bramevaque
(42.9773°N, 0.5757°E)
Time: 12:28:28
(UTC+00:00)

ISS - Pass Details

Date: 15 May 2026
Orbit: 413 x 422 km, 51.6° (Epoch: 7 June)

Event Time Altitude Azimuth Distance (km) Brightness Sun altitude
Rises 22:58:14 0° 305° (NW) 2,353 0.8 -26.7°
Reaches altitude 10° 23:00:25 10° 314° (NW) 1,490 -0.3 -26.8°
Enters shadow 23:01:59 23° 330° (NNW) 939 -1.3 -26.8°
